time_stamp(utc),avg(mph),gust(mph),direction(deg),12m_air_temp(f),sonic_u(cm/s),sonic_v(cm/s),sonic_w(cm/s),pressure,2m_air_temp(f),pyranometer(W/m^2)
"2021-03-13 00:02:39+00",10.5,11.5,,59.5,-473,-62,6,1017.19,54.1,0
"2021-03-13 00:07:39+00",11.7,13.7,,59.6,-512,-45,9,1017.25,54.4,0
"2021-03-13 00:12:39+00",12.8,13.8,,59.7,-559,-55,1,1017.34,55,0
"2021-03-13 00:17:39+00",12.5,14.5,,59.5,-543,-82,8,1017.32,55.4,0
"2021-03-13 00:22:39+00",12.8,14.8,,59.8,-559,-68,7,1017.4,55.7,0
"2021-03-13 00:27:39+00",12.5,14.5,,60.2,-548,-84,6,1017.34,55.9,0
"2021-03-13 00:32:39+00",11.4,12.4,,60.1,-499,-49,13,1017.3,56.1,0
"2021-03-13 00:37:39+00",11.6,12.6,,60,-512,-53,5,1017.33,56,0
"2021-03-13 00:42:39+00",13.1,14.1,,59.8,-573,-58,6,1017.34,56.1,0
"2021-03-13 00:47:39+00",12.5,13.5,,59.4,-562,-2,6,1017.36,56,0
"2021-03-13 00:52:39+00",13.4,14.4,,59,-603,19,5,1017.39,55.7,0
"2021-03-13 00:57:39+00",12.0,13.0,,58.2,-531,82,15,1017.49,55.3,0
"2021-03-13 01:02:39+00",9.3,10.3,,55.1,-382,179,0,1017.55,53.9,0
"2021-03-13 01:07:39+00",10.2,11.2,,55.4,-436,158,13,1017.62,52.8,0
"2021-03-13 01:12:39+00",10.0,11.0,,54.9,-446,98,-2,1017.63,52,0
"2021-03-13 01:17:39+00",10.4,10.4,,55,-471,3,-2,1017.52,51.2,0
"2021-03-13 01:22:39+00",12.4,13.4,,55.9,-557,-13,0,1017.6,50.8,0
"2021-03-13 01:27:39+00",12.9,14.9,,56.7,-574,-42,3,1017.54,51.4,0
"2021-03-13 01:32:39+00",13.5,14.5,,57.4,-592,-50,8,1017.69,52.3,0
"2021-03-13 01:37:39+00",14.3,16.3,,57.7,-651,-20,9,1017.7,53.3,0
"2021-03-13 01:42:39+00",13.7,14.7,,57.4,-618,-6,6,1017.65,53.8,0
"2021-03-13 01:47:39+00",13.6,14.6,,57.2,-600,25,16,1017.63,53.9,0
"2021-03-13 01:52:39+00",14.6,15.6,,57.2,-654,37,12,1017.59,53.9,0
"2021-03-13 01:57:39+00",15.4,16.4,,57.2,-692,122,14,1017.57,53.8,0
"2021-03-13 02:02:39+00",15.9,17.9,,57.2,-696,194,18,1017.53,53.8,0
"2021-03-13 02:07:39+00",16.1,18.1,,56.9,-707,211,23,1017.51,53.9,0
"2021-03-13 02:12:39+00",16.1,18.1,,56.5,-709,204,26,1017.55,53.8,0
"2021-03-13 02:17:39+00",14.1,15.1,,55.9,-610,194,17,1017.51,53.5,0
"2021-03-13 02:22:39+00",14.3,15.3,,55.7,-616,199,18,1017.5,53.2,0
"2021-03-13 02:27:39+00",13.7,14.7,,55.5,-589,196,12,1017.47,52.8,0
"2021-03-13 02:32:39+00",13.8,14.8,,55.2,-597,211,11,1017.59,52.5,0
"2021-03-13 02:37:39+00",12.2,13.2,,54.8,-522,192,22,1017.59,52.2,0
"2021-03-13 02:42:39+00",10.9,11.9,,54.1,-457,189,8,1017.49,51.8,0
"2021-03-13 02:47:39+00",11.9,12.9,,54,-500,210,15,1017.49,51.3,0
"2021-03-13 02:52:39+00",12.3,13.3,,54,-514,221,11,1017.54,51,0
"2021-03-13 02:57:39+00",14.3,16.3,,54.3,-583,292,23,1017.59,50.9,0
"2021-03-13 03:02:39+00",13.9,14.9,,54,-545,317,22,1017.62,51,0
"2021-03-13 03:07:39+00",12.3,13.3,,53.6,-468,301,15,1017.63,50.9,0
"2021-03-13 03:12:39+00",13.6,14.6,,53.5,-503,353,20,1017.57,50.5,0
"2021-03-13 03:17:39+00",14.0,15.0,,53.8,-541,332,19,1017.56,50.5,0
"2021-03-13 03:22:39+00",13.9,14.9,,53.8,-558,306,12,1017.62,50.4,0
"2021-03-13 03:27:39+00",13.6,14.6,,53.7,-554,286,13,1017.61,50.2,0
"2021-03-13 03:32:39+00",14.9,16.9,,54,-606,297,18,1017.84,50.3,0
"2021-03-13 03:37:39+00",16.3,17.3,,54.2,-673,314,20,1017.77,50.6,0
"2021-03-13 03:42:39+00",16.6,18.6,,54,-693,304,25,1017.86,50.9,0
"2021-03-13 03:47:39+00",17.9,20.9,,54.2,-738,317,37,1017.86,51.1,0
"2021-03-13 03:52:39+00",18.4,20.4,,54.1,-752,398,26,1017.87,51.4,0
"2021-03-13 03:57:39+00",17.6,18.6,,53.9,-686,414,30,1017.86,51.6,0
"2021-03-13 04:02:39+00",14.8,15.8,,53.3,-543,349,31,1017.87,51.4,0
"2021-03-13 04:07:39+00",16.0,17.0,,53,-633,380,17,1017.91,50.9,0
"2021-03-13 04:12:39+00",16.5,18.5,,53,-665,365,20,1017.96,50.6,0
"2021-03-13 04:17:39+00",20.0,24.0,,54,-799,430,41,1017.9,51.1,0
"2021-03-13 04:22:39+00",22.7,24.7,,54.9,-911,490,44,1017.94,52.1,0
"2021-03-13 04:27:39+00",23.7,26.7,,55.1,-930,547,68,1017.78,52.6,0
"2021-03-13 04:32:39+00",24.6,29.6,,55.5,-901,640,69,1017.78,53.3,0
"2021-03-13 04:37:39+00",24.6,29.6,,55.8,-908,680,42,1017.81,53.6,0
"2021-03-13 04:42:39+00",22.0,25.0,,55.4,-808,590,69,1017.94,53.6,0
"2021-03-13 04:47:39+00",25.4,29.4,,55.6,-937,666,33,1017.94,53.9,0
"2021-03-13 04:52:39+00",24.8,26.8,,55.5,-948,601,40,1018.03,53.7,0
"2021-03-13 04:57:39+00",31.3,36.3,,56.2,-1185,726,62,1017.78,54.2,0
"2021-03-13 05:02:39+00",27.4,29.4,,55.8,-1055,644,62,1017.86,54.1,0
"2021-03-13 05:07:39+00",28.2,31.2,,55.3,-1122,636,36,1017.96,53.8,0
"2021-03-13 05:12:39+00",23.0,26.0,,54.7,-892,524,50,1018.11,53.3,0
"2021-03-13 05:17:39+00",26.2,29.2,,54.6,-1026,614,50,1018.09,52.9,0
"2021-03-13 05:22:39+00",25.7,28.7,,54.7,-1001,598,49,1018.1,52.8,0
"2021-03-13 05:27:39+00",25.0,29.0,,54.5,-1003,556,43,1018.11,52.7,0
"2021-03-13 05:32:39+00",25.0,29.0,,54.4,-959,566,69,1018.1,52.8,0
"2021-03-13 05:37:39+00",22.5,24.5,,54,-882,524,44,1018.16,52.5,0
"2021-03-13 05:42:39+00",27.7,35.7,,54.5,-1014,656,115,1018.1,52.6,0
"2021-03-13 05:47:39+00",29.9,32.9,,54.7,-1111,797,80,1018.18,52.8,0
"2021-03-13 05:52:39+00",25.9,32.9,,54.5,-980,618,53,1018.28,52.8,0
"2021-03-13 05:57:39+00",30.5,34.5,,54.6,-1172,772,70,1018.27,52.7,0
"2021-03-13 06:02:39+00",32.0,37.0,,54.4,-1232,780,68,1018.28,52.9,0
"2021-03-13 06:07:39+00",26.8,30.8,,54.1,-1062,598,62,1018.36,52.6,0
"2021-03-13 06:12:39+00",34.5,40.5,,54.6,-1342,774,88,1018.28,52.9,0
"2021-03-13 06:17:39+00",31.8,37.8,,54,-1181,781,55,1018.38,52.7,0
"2021-03-13 06:22:39+00",30.1,34.1,,53.9,-1104,767,85,1018.34,52.7,0
"2021-03-13 06:27:39+00",38.3,43.3,,54,-1379,1064,93,1018.2,52.6,0
"2021-03-13 06:32:39+00",29.1,33.1,,53.5,-1061,724,73,1018.45,52.3,0
"2021-03-13 06:37:39+00",33.2,37.2,,53.8,-1213,858,63,1018.6,52.3,0
"2021-03-13 06:42:39+00",26.4,30.4,,53.5,-983,664,49,1018.67,52.2,0
"2021-03-13 06:47:39+00",26.8,31.8,,53.3,-983,733,69,1018.7,51.8,0
"2021-03-13 06:52:39+00",25.7,30.7,,53,-970,593,84,1018.69,51.8,0
"2021-03-13 06:57:39+00",22.1,27.1,,52.7,-856,548,49,1018.82,51.6,0
"2021-03-13 07:02:39+00",27.0,33.0,,52.9,-1065,664,52,1018.68,51.5,0
"2021-03-13 07:07:39+00",25.8,28.8,,52.9,-934,668,70,1018.77,51.5,0
"2021-03-13 07:12:39+00",23.5,26.5,,52.6,-869,613,48,1019.08,51.2,0
"2021-03-13 07:17:39+00",20.6,22.6,,52.3,-728,580,51,1019.1,50.9,0
"2021-03-13 07:22:39+00",18.5,22.5,,52,-658,533,57,1019.15,50.6,0
"2021-03-13 07:27:39+00",20.0,25.0,,52.2,-631,622,59,1019.11,50.6,0
"2021-03-13 07:32:39+00",15.2,17.2,,51.8,-470,516,36,1019.26,50.4,0
"2021-03-13 07:37:39+00",17.4,22.4,,51.9,-521,577,70,1019.18,50.2,0
"2021-03-13 07:42:39+00",24.8,27.8,,52.1,-882,735,61,1019.13,50.5,0
"2021-03-13 07:47:39+00",25.5,30.5,,51.8,-857,765,54,1019.22,50.6,0
"2021-03-13 07:52:39+00",27.3,32.3,,51.8,-859,829,75,1019.04,50.5,0
"2021-03-13 07:57:39+00",28.4,36.4,,51.7,-811,950,62,1019.12,50.5,0
"2021-03-13 08:02:39+00",27.8,33.8,,51.5,-845,912,83,1019.24,50.4,0
"2021-03-13 08:07:39+00",29.6,30.6,,51.1,-847,1019,49,1019.26,50.1,0
"2021-03-13 08:12:39+00",24.9,27.9,,50.8,-737,853,39,1019.38,49.8,0
"2021-03-13 08:17:39+00",26.8,30.8,,50.6,-906,807,90,1019.42,49.6,0
"2021-03-13 08:22:39+00",25.3,32.3,,50.2,-803,814,74,1019.59,49.3,0
"2021-03-13 08:27:39+00",28.4,31.4,,50.2,-894,900,63,1019.75,49.3,0
"2021-03-13 08:32:39+00",31.8,34.8,,50.1,-1024,1007,74,1019.63,49.1,0
"2021-03-13 08:37:39+00",34.9,43.9,,50,-1085,1087,85,1019.62,48.9,0
"2021-03-13 08:42:39+00",29.5,33.5,,49.4,-1016,853,52,1020.03,48.6,0
"2021-03-13 08:47:39+00",27.2,31.2,,49.3,-838,857,72,1020.17,48.3,0
"2021-03-13 08:52:39+00",22.7,24.7,,49,-748,702,38,1020.18,48.1,0
"2021-03-13 08:57:39+00",27.2,33.2,,48.9,-630,1072,7,1020.34,47.9,0
"2021-03-13 09:02:39+00",22.8,24.8,,48.6,-498,869,43,1020.53,47.8,0
"2021-03-13 09:07:39+00",25.3,28.3,,48.3,-684,885,61,1020.74,47.5,0
"2021-03-13 09:12:39+00",30.7,34.7,,48,-801,1099,74,1020.87,47.2,0
"2021-03-13 09:17:39+00",25.4,30.4,,47.3,-563,947,36,1021.08,46.7,0
"2021-03-13 09:22:39+00",30.1,35.1,,47.1,-833,1064,60,1021.05,46.3,0
"2021-03-13 09:27:39+00",24.9,32.9,,46.8,-533,976,48,1021.42,46.1,0
"2021-03-13 09:32:39+00",28.3,34.3,,46.4,-835,980,37,1021.43,45.7,0
"2021-03-13 09:37:39+00",22.8,30.8,,46.2,-654,810,47,1021.64,45.4,0
"2021-03-13 09:42:39+00",24.8,27.8,,46.1,-706,848,48,1021.76,45.3,0
"2021-03-13 09:47:39+00",22.7,25.7,,46,-710,728,31,1021.95,45.1,0
"2021-03-13 09:52:39+00",21.3,25.3,,45.8,-599,743,49,1022.11,45,0
"2021-03-13 09:57:39+00",18.5,20.5,,45.6,-477,673,16,1022.25,44.7,0
"2021-03-13 10:02:39+00",15.5,17.5,,45.2,-351,600,29,1022.44,44.5,0
"2021-03-13 10:07:39+00",22.9,24.9,,44.9,-468,923,38,1022.54,44,0
"2021-03-13 10:12:39+00",19.8,22.8,,44.4,-430,769,58,1022.59,43.7,0
"2021-03-13 10:17:39+00",23.5,26.5,,44.3,-558,874,50,1022.67,43.4,0
"2021-03-13 10:22:39+00",21.3,24.3,,43.6,-280,894,43,1022.82,42.9,0
"2021-03-13 10:27:39+00",23.8,27.8,,43,-306,1036,16,1022.97,42.4,0
"2021-03-13 10:32:39+00",20.1,25.1,,42.7,-326,835,22,1023.22,42,0
"2021-03-13 10:37:39+00",20.5,22.5,,42.5,-381,826,20,1023.57,41.7,0
"2021-03-13 10:42:39+00",18.7,22.7,,42,-249,812,7,1023.74,41.2,0
"2021-03-13 10:47:39+00",20.5,26.5,,41.9,-429,797,40,1023.94,41,0
"2021-03-13 10:52:39+00",19.1,22.1,,41.6,-354,783,15,1024,40.7,0
"2021-03-13 10:57:39+00",24.8,28.8,,41.2,-292,1044,40,1024.2,40.3,0
"2021-03-13 11:02:39+00",20.6,24.6,,40.9,-431,818,35,1024.43,40.2,0
"2021-03-13 11:07:39+00",20.0,23.0,,40.7,-381,795,41,1024.71,40,0
"2021-03-13 11:12:39+00",17.7,20.7,,40.4,-428,672,33,1024.92,39.6,0
"2021-03-13 11:17:39+00",16.9,19.9,,40,-263,699,19,1025.14,39.3,0
"2021-03-13 11:22:39+00",18.2,21.2,,40,-331,748,33,1025.17,39.1,0
"2021-03-13 11:27:39+00",18.7,22.7,,39.7,-352,748,12,1025.26,38.9,0
"2021-03-13 11:32:39+00",16.6,19.6,,39.3,-36,745,17,1025.47,38.7,0
"2021-03-13 11:37:39+00",18.6,23.6,,38.9,-154,836,13,1025.61,38.3,0
"2021-03-13 11:42:39+00",16.8,21.8,,38.4,-119,749,16,1025.85,37.9,0
"2021-03-13 11:47:39+00",21.5,24.5,,38.2,-153,943,5,1025.99,37.7,0
"2021-03-13 11:52:39+00",21.0,25.0,,37.9,-217,903,22,1026.02,37.6,0
"2021-03-13 11:57:39+00",23.1,27.1,,37.8,-79,1008,28,1026.11,37.7,0
"2021-03-13 12:02:39+00",21.3,24.3,,37.7,-159,942,7,1026,37.8,0
"2021-03-13 12:07:39+00",22.8,25.8,,37.5,-144,999,6,1026,38,0
"2021-03-13 12:12:39+00",20.4,24.4,,37.4,-284,846,-6,1026.2,38.2,0
"2021-03-13 12:17:39+00",22.2,26.2,,37.3,-289,951,12,1026.39,38.3,0
"2021-03-13 12:22:39+00",18.0,21.0,,37.3,-304,725,40,1026.58,38.4,0
"2021-03-13 12:27:39+00",17.5,19.5,,37.3,-200,757,11,1026.77,38.6,0
"2021-03-13 12:32:39+00",18.1,21.1,,37.3,-113,804,23,1026.84,38.9,0
"2021-03-13 12:37:39+00",19.7,21.7,,37.1,-388,786,26,1026.94,38.9,0
"2021-03-13 12:42:39+00",21.1,24.1,,37.1,-353,869,27,1026.82,38.9,0
"2021-03-13 12:47:39+00",18.8,20.8,,36.8,-300,783,23,1026.73,38.9,0
"2021-03-13 12:52:39+00",16.6,19.6,,37.1,-121,713,22,1026.88,39.1,0
"2021-03-13 12:57:39+00",20.2,23.2,,37,-406,804,28,1026.98,39.1,0
"2021-03-13 13:02:39+00",16.9,18.9,,36.9,-332,677,8,1027.07,38.9,0
"2021-03-13 13:07:39+00",12.7,16.7,,36.8,-257,480,0,1027.16,39,0
"2021-03-13 13:12:39+00",12.9,15.9,,37,-208,549,18,1027.24,39.2,0
"2021-03-13 13:17:39+00",12.8,15.8,,37.2,-190,537,30,1027.16,39.7,0
"2021-03-13 13:22:39+00",16.9,19.9,,37.4,-299,689,32,1027.07,40.2,0
"2021-03-13 13:27:39+00",17.6,20.6,,37.6,-286,736,29,1026.87,40.2,0
"2021-03-13 13:32:39+00",20.7,24.7,,37.6,-237,901,28,1027.06,40.5,0
"2021-03-13 13:37:39+00",16.0,19.0,,37.4,-7,703,15,1027.22,40.5,0
"2021-03-13 13:42:39+00",15.0,18.0,,37.9,-162,636,-3,1027.3,40.9,0
"2021-03-13 13:47:39+00",11.5,13.5,,37.8,-238,432,24,1027.48,40.8,0
"2021-03-13 13:52:39+00",11.6,14.6,,38,-414,295,54,1027.48,40.9,0
"2021-03-13 13:57:39+00",11.0,15.0,,38,-289,379,50,1027.47,40.9,0
"2021-03-13 14:02:39+00",14.0,16.0,,37.6,-193,599,-6,1027.26,41,0
"2021-03-13 14:07:39+00",13.4,15.4,,37.6,-303,488,-6,1027.32,40.6,0
"2021-03-13 14:12:39+00",16.1,20.1,,38,-355,611,27,1027.29,40.6,0
"2021-03-13 14:17:39+00",11.7,15.7,,38.3,-314,435,25,1027.36,40.9,0
"2021-03-13 14:22:39+00",13.9,16.9,,38.1,-389,465,45,1027.33,41,0
"2021-03-13 14:27:39+00",9.9,12.9,,38.4,-117,406,-3,1027.47,41.4,0
"2021-03-13 14:32:39+00",15.3,17.3,,38.6,-397,555,38,1027.43,42.1,0
"2021-03-13 14:37:39+00",12.9,16.9,,38.3,-226,502,10,1027.26,42,0
"2021-03-13 14:42:39+00",15.1,18.1,,38.7,-162,658,0,1027.29,42.1,0
"2021-03-13 14:47:39+00",13.7,16.7,,39.4,-8,615,0,1027.3,42.8,0
"2021-03-13 14:52:39+00",14.4,17.4,,39.1,135,609,1,1027.44,43.3,0
"2021-03-13 14:57:39+00",14.2,16.2,,38.9,-47,621,-6,1027.42,43.7,0
"2021-03-13 15:02:39+00",9.8,11.8,,39.1,141,390,-23,1027.25,43.6,0
"2021-03-13 15:07:39+00",12.7,14.7,,39.1,111,523,-7,1027.18,43.6,0
"2021-03-13 15:12:39+00",14.3,16.3,,39.5,122,611,-16,1027.13,43.7,0
"2021-03-13 15:17:39+00",12.4,15.4,,39.5,-280,464,54,1027.19,43.7,0
"2021-03-13 15:22:39+00",10.7,12.7,,39.6,-401,283,69,1027.31,43.8,0
"2021-03-13 15:27:39+00",7.4,9.4,,39.3,-239,232,14,1027.22,43.5,0
"2021-03-13 15:32:39+00",7.7,10.7,,39.8,108,302,14,1027.16,43.9,0
"2021-03-13 15:37:39+00",8.7,10.7,,40.1,209,314,-9,1027.13,44.2,0
"2021-03-13 15:42:39+00",8.7,13.7,,40.3,-20,400,-14,1027.1,44.8,0
"2021-03-13 15:47:39+00",12.2,15.2,,40,267,438,-6,1026.92,45,0
"2021-03-13 15:52:39+00",10.6,14.6,,40.3,148,416,-21,1026.97,45.1,0
"2021-03-13 15:57:39+00",7.1,9.1,,40.5,54,291,1,1027.06,45.2,0
"2021-03-13 16:02:39+00",4.7,7.7,,40.3,162,107,-29,1026.94,45.1,0
"2021-03-13 16:07:39+00",10.6,12.6,,40.9,-233,409,31,1026.81,45.5,0
"2021-03-13 16:12:39+00",9.8,10.8,,40.5,-412,-90,39,1026.96,45.4,0
"2021-03-13 16:17:39+00",5.8,7.8,,40.4,-249,-69,25,1026.83,46.4,0
"2021-03-13 16:22:39+00",8.5,10.5,,40.6,-355,-90,-2,1026.75,47,0
"2021-03-13 16:27:39+00",9.8,11.8,,40.2,-427,25,31,1026.75,47.5,0
"2021-03-13 16:32:39+00",7.3,9.3,,40.3,-298,108,26,1026.65,47.4,0
"2021-03-13 16:37:39+00",6.5,8.5,,40.7,-272,-15,-2,1026.55,48.1,0
"2021-03-13 16:42:39+00",11.8,12.8,,40.7,-525,101,19,1026.44,48.6,0
"2021-03-13 16:47:39+00",5.8,6.8,,40.5,-221,-134,3,1026.45,48.5,0
"2021-03-13 16:52:39+00",9.5,11.5,,41.3,-413,-34,54,1026.36,48.9,0
"2021-03-13 16:57:39+00",7.9,9.9,,41.3,-343,-98,29,1026.35,49.3,0
"2021-03-13 17:02:39+00",8.7,9.7,,41.5,-365,14,42,1026.31,49.4,0
"2021-03-13 17:07:39+00",7.5,9.5,,41.8,-284,77,-2,1026.15,48.8,0
"2021-03-13 17:12:39+00",11.4,15.4,,41.6,-502,-17,20,1026.14,48.8,0
"2021-03-13 17:17:39+00",11.6,12.6,,41.7,-512,13,-4,1026.12,48.9,0
"2021-03-13 17:22:39+00",11.9,15.9,,42,-537,-59,91,1026.1,48.8,0
"2021-03-13 17:27:39+00",10.4,11.4,,41.9,-438,-247,-15,1026.05,49.1,0
"2021-03-13 17:32:39+00",9.6,12.6,,42.2,-416,-27,34,1026.02,49.5,0
"2021-03-13 17:37:39+00",9.7,11.7,,42.8,-202,367,0,1025.94,49.1,0
"2021-03-13 17:42:39+00",8.1,11.1,,42.8,-318,131,-17,1025.82,48.4,0
"2021-03-13 17:47:39+00",6.5,8.5,,42.8,-205,194,2,1025.86,48.4,0
"2021-03-13 17:52:39+00",9.4,11.4,,43.2,-402,125,53,1025.68,48.6,0
"2021-03-13 17:57:39+00",9.9,13.9,,43.4,-422,-112,61,1025.62,49.2,0
"2021-03-13 18:02:39+00",11.3,13.3,,43.2,-500,77,28,1025.57,50,0
"2021-03-13 18:07:39+00",7.7,9.7,,43.5,-333,31,44,1025.45,49.9,0
"2021-03-13 18:12:39+00",5.7,9.7,,43.8,-235,-32,52,1025.22,50.8,0
"2021-03-13 18:17:39+00",13.3,16.3,,44.4,-560,212,40,1025.04,51.5,0
"2021-03-13 18:22:39+00",12.7,13.7,,44.4,-546,193,1,1024.84,51.1,0
"2021-03-13 18:27:39+00",14.0,16.0,,44.8,-509,371,45,1024.65,49.7,0
"2021-03-13 18:32:39+00",11.4,12.4,,44.5,-370,326,4,1024.69,48.8,0
"2021-03-13 18:37:39+00",10.0,11.0,,44.8,-276,346,29,1024.64,48.6,0
"2021-03-13 18:42:39+00",7.1,9.1,,45,-231,162,48,1024.42,48.7,0
"2021-03-13 18:47:39+00",11.2,13.2,,45.9,-430,258,37,1024.37,49.1,0
"2021-03-13 18:52:39+00",9.2,11.2,,45.6,-330,249,11,1024.25,49.4,0
"2021-03-13 18:57:39+00",10.9,12.9,,46,-417,275,56,1024.17,49.8,0
"2021-03-13 19:02:39+00",12.3,14.3,,46.3,-502,242,32,1024.08,50,0
"2021-03-13 19:07:39+00",11.2,14.2,,43.7,13,-474,-11,1024.1,46.9,0
"2021-03-13 19:12:39+00",9.0,14.0,,43.8,11,-346,32,1023.96,46.1,0
"2021-03-13 19:17:39+00",12.8,15.8,,43.4,97,-527,20,1024.12,45.4,0
"2021-03-13 19:22:39+00",6.8,9.8,,43.5,-13,-292,23,1023.97,45.3,0
"2021-03-13 19:27:39+00",7.1,12.1,,44.2,-104,-289,8,1024,46,0
"2021-03-13 19:32:39+00",9.7,12.7,,44.2,44,-405,1,1023.96,45.8,0
"2021-03-13 19:37:39+00",10.0,14.0,,44.6,-119,-424,7,1023.84,46.1,0
"2021-03-13 19:42:39+00",10.8,14.8,,44.6,23,-443,22,1023.72,46.3,0
"2021-03-13 19:47:39+00",15.0,17.0,,43.7,-8,-642,-38,1023.6,45.2,0
"2021-03-13 19:52:39+00",11.5,15.5,,43.7,-1,-484,13,1023.57,45.3,0
"2021-03-13 19:57:39+00",13.4,15.4,,44,56,-567,-30,1023.44,45.6,0
"2021-03-13 20:02:39+00",12.8,15.8,,43,96,-507,9,1023.54,44.5,0
"2021-03-13 20:07:39+00",10.9,14.9,,43.6,-55,-463,-12,1023.55,44.6,0
"2021-03-13 20:12:39+00",8.0,13.0,,43.9,-11,-327,20,1023.71,45.2,0
"2021-03-13 20:17:39+00",12.2,17.2,,43.8,0,-525,-18,1023.67,45.4,0
"2021-03-13 20:22:39+00",12.3,17.3,,43.5,43,-536,-13,1023.77,44.8,0
"2021-03-13 20:27:39+00",15.5,19.5,,43,72,-649,-40,1023.62,44.3,0
"2021-03-13 20:32:39+00",10.4,12.4,,42.8,-7,-448,-25,1023.72,44,0
"2021-03-13 20:37:39+00",9.4,13.4,,43.8,-109,-398,49,1023.78,45,0
"2021-03-13 20:42:39+00",12.0,17.0,,44.2,-79,-479,-19,1023.49,45.5,0
"2021-03-13 20:47:39+00",14.4,17.4,,43.9,-103,-616,-3,1023.24,45.3,0
"2021-03-13 20:52:39+00",10.0,15.0,,44.1,-30,-427,28,1023.07,45.4,0
"2021-03-13 20:57:39+00",14.9,17.9,,42.8,31,-629,-23,1023.01,44,0
"2021-03-13 21:02:39+00",12.6,16.6,,42.9,0,-515,-7,1022.87,43.8,0
"2021-03-13 21:07:39+00",14.9,16.9,,42.6,37,-622,-32,1022.73,43.6,0
"2021-03-13 21:12:39+00",13.2,15.2,,42.5,140,-545,-11,1022.6,43.4,0
"2021-03-13 21:17:39+00",9.7,12.7,,43.2,-26,-402,2,1022.52,44.1,0
"2021-03-13 21:22:39+00",11.5,15.5,,43.1,-19,-472,3,1022.37,43.9,0
"2021-03-13 21:27:39+00",13.6,17.6,,42.6,99,-582,-10,1022.35,43.5,0
"2021-03-13 21:32:39+00",11.1,15.1,,42.7,-26,-453,-15,1022.34,43.4,0
"2021-03-13 21:37:39+00",13.8,16.8,,43.2,-132,-581,-14,1022.29,43.9,0
"2021-03-13 21:42:39+00",13.7,15.7,,43.4,-78,-589,-28,1022.25,44.2,0
"2021-03-13 21:47:39+00",13.5,15.5,,43.7,-112,-576,7,1022.17,44.5,0
"2021-03-13 21:52:39+00",9.2,16.2,,43.5,-56,-390,26,1022.02,44.3,0
"2021-03-13 21:57:39+00",11.2,15.2,,43.4,-75,-485,-7,1022.04,44.2,0
"2021-03-13 22:02:39+00",12.4,17.4,,43.3,-86,-531,7,1022.04,44.2,0
"2021-03-13 22:07:39+00",13.6,16.6,,43.1,-137,-574,-5,1022.08,43.9,0
"2021-03-13 22:12:39+00",11.5,13.5,,43.2,-146,-479,3,1022.23,43.8,0
"2021-03-13 22:17:39+00",12.0,16.0,,43.3,-117,-486,-1,1022.29,43.9,0
"2021-03-13 22:22:39+00",13.7,15.7,,43.2,-148,-568,-6,1022.2,43.7,0
"2021-03-13 22:27:39+00",11.0,13.0,,43.2,-178,-452,-5,1022.28,43.4,0
"2021-03-13 22:32:39+00",10.0,12.0,,43,-158,-416,2,1022.29,43.2,0
"2021-03-13 22:37:39+00",9.6,12.6,,42.9,-102,-396,4,1022.32,42.8,0
"2021-03-13 22:42:39+00",9.5,13.5,,42.8,-61,-380,37,1022.16,42.7,0
"2021-03-13 22:47:39+00",9.4,11.4,,43.2,-350,-243,6,1022.22,42.7,0
"2021-03-13 22:52:39+00",10.4,11.4,,44.1,-337,-305,6,1022.28,43,0
"2021-03-13 22:57:39+00",8.9,9.9,,44.5,-364,-169,-7,1022.36,43.2,0
"2021-03-13 23:02:39+00",10.7,11.7,,45.6,-487,70,28,1022.33,43.4,0
"2021-03-13 23:07:39+00",10.6,12.6,,46.3,-475,97,26,1022.35,43.8,0
"2021-03-13 23:12:39+00",10.4,11.4,,46.4,-452,161,12,1022.44,44.1,0
"2021-03-13 23:17:39+00",9.2,10.2,,46.4,-393,129,21,1022.46,44.1,0
"2021-03-13 23:22:39+00",8.3,9.3,,46.2,-363,109,11,1022.35,44,0
"2021-03-13 23:27:39+00",9.8,10.8,,46.2,-421,156,16,1022.27,43.8,0
"2021-03-13 23:32:39+00",9.2,10.2,,46,-403,92,21,1022.43,43.7,0
"2021-03-13 23:37:39+00",8.3,9.3,,45.5,-379,27,5,1022.51,43.5,0
"2021-03-13 23:42:39+00",7.3,8.3,,45.4,-326,8,3,1022.4,43.3,0
"2021-03-13 23:47:39+00",7.3,8.3,,45.2,-326,34,6,1022.4,42.9,0
"2021-03-13 23:52:39+00",8.3,9.3,,45.3,-370,15,9,1022.5,42.6,0
"2021-03-13 23:57:39+00",7.5,8.5,,45.3,-339,-2,7,1022.49,42.3,0
